Wind_Speed
14 16 17 17 17 18 19 22 24 25 27 29 31 32 32 34 36 36 36 37 40 42 42 42 43 44 44 43 41 40 41 41 41 40 38 38 37 36 35 34 33 33 33 32
13 15 16 15 16 17 19 21 23 24 25 28 30 31 32 33 34 35 35 36 37 40 41 41 42 43 44 43 43 42 41 41 41 40 39 38 38 37 36 35 34 34 33 32
13 14 15 15 15 15 17 19 21 23 24 26 28 30 31 32 33 34 34 34 36 37 39 41 41 42 43 43 43 43 42 41 41 41 40 39 38 38 37 37 36 34 34 33
12 13 13 15 16 14 14 17 20 22 24 26 26 28 30 31 33 34 34 34 35 36 38 39 40 41 41 42 43 43 43 42 41 41 41 41 40 39 38 37 37 36 35 34
11 11 12 14 15 14 14 15 18 20 23 25 26 27 28 30 32 33 34 34 34 35 37 38 38 39 40 41 42 42 42 42 42 41 41 41 41 40 39 38 38 37 36 36
9 11 12 13 15 15 14 15 17 19 21 23 24 27 28 29 29 30 32 32 33 34 35 36 38 38 39 40 41 41 42 42 43 42 41 41 41 40 40 39 39 39 38 37
8 10 12 13 14 14 15 15 15 17 19 21 23 25 26 27 27 29 30 31 31 33 34 36 37 38 38 39 40 40 41 42 42 42 41 41 41 41 40 40 40 40 39 38
8 8 10 11 13 12 13 15 16 17 19 21 22 25 25 25 27 28 29 30 31 32 33 35 36 37 38 38 38 39 40 40 41 42 42 41 41 41 41 41 40 40 39 39
10 9 10 10 12 13 13 14 15 17 18 20 21 23 24 24 26 27 28 29 30 31 32 33 34 36 37 38 37 38 39 39 40 41 42 41 41 41 41 41 40 40 39 39
11 11 10 11 13 14 14 14 15 16 18 19 20 21 22 23 23 25 27 28 29 30 32 33 33 34 36 37 37 37 38 38 39 40 41 42 41 41 41 41 41 40 40 40
12 11 10 12 14 15 14 14 15 16 18 20 20 20 21 21 22 24 25 27 28 29 31 33 34 34 35 35 36 36 37 37 38 39 39 40 41 41 41 41 41 40 40 40
13 12 12 13 14 15 15 16 16 18 19 19 21 20 20 21 21 22 24 26 28 29 29 32 34 35 35 35 35 35 36 36 37 38 39 39 39 40 41 40 41 41 40 40
13 13 14 14 15 15 15 16 17 18 19 20 20 19 20 21 22 22 23 24 26 28 30 30 32 34 35 35 35 35 35 36 37 38 38 39 39 39 40 40 41 41 41 40
13 14 14 15 15 16 16 16 17 18 18 20 20 20 20 21 21 21 22 23 25 27 29 31 32 34 35 35 35 36 35 35 36 37 38 39 40 39 39 39 40 40 40 40
15 15 14 15 16 17 17 17 19 19 19 19 19 20 20 22 21 21 22 23 24 26 28 29 31 34 35 35 36 36 35 35 35 36 37 39 39 40 40 39 39 39 39 39
16 16 16 16 16 17 18 18 19 19 19 20 21 21 22 22 22 22 22 23 24 25 27 28 29 31 33 34 35 36 36 35 36 36 37 38 39 39 39 40 39 39 39 39
18 18 18 18 18 18 18 19 18 19 20 21 22 21 22 22 22 22 22 23 23 24 26 27 28 29 31 33 34 35 35 35 36 36 37 37 38 38 38 39 39 39 39 39
18 18 18 18 18 19 18 19 19 19 19 21 21 22 22 23 23 23 23 23 23 24 26 27 28 29 30 32 33 34 35 35 36 36 36 37 37 38 38 38 38 39 39 39
19 18 18 18 20 20 19 20 20 20 20 20 21 22 23 23 23 24 24 24 24 24 26 28 29 29 30 31 33 34 35 35 35 36 36 36 36 37 37 38 38 38 38 39
20 19 19 19 19 20 20 20 20 21 21 22 22 22 22 23 24 24 25 25 24 25 26 27 28 29 30 30 32 33 34 34 35 35 35 35 36 37 37 37 37 37 38 38
21 20 20 20 20 20 20 20 21 21 21 21 22 23 23 23 24 24 25 25 25 25 25 26 27 28 29 29 30 31 33 33 34 34 35 34 35 35 36 36 37 37 37 38
22 22 22 21 22 21 21 20 21 21 21 22 22 22 23 23 24 24 25 25 25 25 25 26 27 27 28 28 29 29 31 31 32 33 34 34 33 33 34 35 35 36 36 36
22 22 22 22 22 22 21 21 22 22 22 23 23 23 24 24 24 25 25 26 26 26 26 26 27 27 27 28 28 28 29 29 30 31 32 32 32 32 33 33 33 34 35 35
22 23 23 23 22 22 22 22 22 23 23 23 23 24 25 25 26 26 26 26 27 27 27 27 27 27 28 28 28 28 29 29 29 30 30 31 31 32 32 32 32 33 33 33
23 23 23 22 22 23 23 23 23 23 23 23 24 24 25 26 27 27 27 26 27 27 27 27 27 27 27 28 28 29 29 29 29 30 31 31 31 32 32 33 33 33 33 33
23 24 24 23 22 23 23 24 24 24 24 24 25 25 25 26 27 27 28 28 28 28 27 28 28 28 28 28 28 29 29 29 30 30 30 31 32 32 33 33 33 33 33 33
Wind_Direction
255 240 231 237 240 242 243 240 236 233 233 233 232 232 230 230 229 229 228 228 229 228 228 229 229 230 230 231 232 233 234 235 235 237 239 242 244 246 248 250 253 256 258 262
252 239 235 241 241 241 241 239 236 232 233 234 232 231 230 229 228 228 229 229 229 229 229 229 229 230 231 232 232 232 233 235 237 238 239 242 245 247 249 251 253 256 258 261
250 237 236 241 240 242 244 241 238 236 232 232 233 231 229 228 229 229 229 230 230 229 230 231 230 231 231 232 232 233 233 235 238 239 239 241 244 247 249 251 254 257 258 260
248 236 240 241 238 242 243 240 239 238 235 235 235 235 230 230 230 230 230 231 232 230 230 231 231 232 233 233 233 234 235 235 237 240 241 243 245 247 249 252 254 256 257 260
254 241 242 241 241 244 244 243 243 241 238 237 236 238 233 232 233 233 233 234 234 232 231 232 232 233 233 234 235 235 236 236 237 239 241 243 246 247 249 252 254 256 259 261
269 253 248 245 241 243 243 243 243 242 239 238 237 239 236 236 235 236 236 236 236 234 233 233 234 234 234 235 236 237 237 237 238 240 242 244 246 248 250 252 254 256 258 260
283 268 254 247 241 242 243 243 243 240 238 238 237 240 241 239 238 238 238 238 237 236 235 234 234 234 235 236 238 239 239 240 241 242 243 245 247 248 250 252 254 256 258 260
298 280 261 252 245 246 245 242 244 243 240 240 241 243 244 242 240 239 239 239 237 235 234 232 232 234 235 236 238 239 240 241 242 243 244 246 247 249 250 252 254 255 257 260
300 292 273 259 249 246 249 242 244 249 249 248 246 246 246 244 242 241 240 239 237 236 234 232 232 234 235 236 237 238 240 242 243 244 245 247 247 248 250 251 253 255 256 258
300 297 278 261 251 249 250 248 248 250 251 251 248 248 247 246 244 244 242 241 240 238 235 233 233 234 235 237 238 240 241 242 243 244 246 247 248 249 250 251 253 255 256 258
299 294 278 262 252 247 249 248 248 250 251 254 255 251 247 247 248 247 246 244 242 240 238 236 235 235 236 238 240 241 241 241 243 244 245 247 249 249 250 251 253 254 256 258
299 287 280 271 264 256 254 253 251 251 252 255 259 256 250 250 251 250 248 245 242 241 241 238 236 236 237 239 240 242 243 243 244 245 245 246 248 249 250 252 253 254 255 257
303 288 281 275 267 259 256 255 254 254 253 254 257 257 254 254 253 253 251 248 244 243 242 241 238 237 237 238 239 242 244 246 246 246 246 246 247 249 251 253 253 254 255 257
304 296 287 279 269 262 259 257 257 256 255 254 255 256 255 255 254 254 252 249 247 245 244 243 241 239 238 239 240 242 245 246 247 247 247 248 248 250 251 253 254 254 255 256
300 296 288 281 270 264 263 264 262 260 258 256 256 254 254 255 255 256 254 253 250 248 246 246 244 241 241 241 242 243 245 247 247 248 249 249 250 250 251 253 254 255 255 256
297 297 291 284 277 268 268 268 267 264 260 259 257 254 254 255 256 256 257 256 254 251 248 247 247 244 243 243 244 245 246 248 248 249 250 250 250 252 253 254 255 255 255 255
298 296 292 287 282 275 269 268 266 265 262 260 259 255 253 254 258 259 261 261 258 253 251 248 248 247 246 246 246 246 247 249 249 249 250 250 251 252 254 255 255 255 255 256
300 298 292 288 282 278 276 271 267 266 266 264 262 259 257 258 259 261 263 264 263 259 255 251 250 249 248 249 249 250 250 250 251 251 251 252 253 253 254 256 257 256 256 256
298 296 294 291 285 281 278 275 270 268 267 266 266 263 260 259 261 262 262 264 264 263 260 255 252 251 250 251 251 251 251 251 251 252 253 253 254 254 254 256 257 257 256 256
295 293 293 292 288 286 283 278 272 270 266 265 264 262 261 261 261 262 262 263 263 262 260 256 253 252 252 251 251 251 251 252 252 252 253 254 255 255 255 256 256 256 256 256
291 289 290 289 287 286 285 281 275 270 271 268 265 263 262 261 263 263 263 262 263 263 262 258 255 253 252 252 252 252 252 253 253 253 254 254 255 256 256 256 256 256 257 257
289 286 285 284 284 287 284 281 277 275 273 271 267 265 265 265 265 265 263 262 263 264 264 262 258 255 253 252 252 252 253 253 254 254 254 254 255 256 256 256 256 255 256 257
287 286 283 282 283 283 282 280 278 276 275 272 268 266 267 267 266 265 264 263 263 264 264 262 261 258 256 255 254 253 254 256 256 254 254 254 254 254 254 255 255 256 256 256
285 284 282 281 280 280 280 280 280 278 275 273 270 268 267 267 266 265 264 264 264 265 265 263 262 260 258 258 257 257 258 257 255 254 254 254 253 254 255 255 255 256 256 256
284 283 283 281 279 278 278 279 279 278 277 275 273 270 269 268 266 265 264 264 264 264 264 263 263 261 259 259 259 260 260 259 257 257 256 254 254 254 254 256 256 256 257 257
284 282 282 281 280 279 279 279 278 276 276 275 274 273 270 269 267 265 265 264 264 264 264 263 262 261 260 260 260 261 262 262 260 258 258 256 256 255 254 255 256 256 256 257
Height
5654 5656 5657 5660 5663 5666 5668 5671 5674 5677 5679 5682 5685 5689 5693 5696 5699 5704 5709 5714 5719 5724 5729 5734 5739 5744 5749 5754 5759 5763 5767 5771 5774 5778 5781 5784 5786 5789 5791 5793 5794 5795 5796 5797
5651 5651 5654 5656 5658 5660 5662 5665 5668 5672 5674 5676 5679 5682 5686 5689 5693 5698 5702 5707 5712 5717 5721 5726 5731 5736 5740 5745 5750 5755 5759 5763 5766 5770 5773 5776 5778 5781 5783 5785 5786 5787 5788 5789
5647 5649 5649 5651 5654 5656 5658 5661 5664 5666 5669 5670 5673 5676 5680 5683 5687 5691 5695 5700 5704 5709 5713 5718 5723 5727 5732 5737 5741 5746 5750 5754 5758 5762 5765 5768 5771 5773 5775 5777 5779 5780 5781 5781
5643 5645 5646 5647 5650 5652 5655 5657 5659 5661 5663 5665 5668 5670 5675 5678 5681 5685 5689 5693 5697 5702 5706 5710 5715 5719 5724 5728 5733 5737 5741 5745 5749 5753 5756 5760 5762 5765 5767 5769 5770 5772 5773 5773
5640 5641 5642 5644 5646 5648 5651 5653 5655 5656 5658 5660 5662 5665 5669 5672 5675 5680 5683 5687 5690 5694 5699 5703 5707 5711 5715 5720 5724 5728 5733 5737 5740 5744 5748 5751 5754 5756 5758 5760 5762 5763 5764 5765
5638 5638 5639 5640 5642 5645 5647 5649 5650 5651 5653 5655 5658 5660 5663 5666 5671 5674 5677 5681 5684 5688 5691 5695 5699 5703 5707 5711 5716 5720 5724 5728 5731 5735 5739 5742 5745 5747 5750 5752 5753 5755 5756 5757
5635 5635 5636 5637 5639 5641 5642 5645 5646 5646 5647 5650 5653 5655 5659 5662 5666 5668 5671 5674 5677 5680 5684 5688 5692 5695 5699 5703 5707 5711 5715 5719 5722 5726 5729 5733 5735 5738 5740 5743 5744 5746 5747 5748
5633 5633 5633 5634 5635 5637 5638 5640 5642 5642 5643 5646 5648 5650 5654 5657 5659 5662 5664 5667 5670 5673 5676 5680 5684 5687 5691 5695 5698 5702 5706 5710 5713 5717 5720 5723 5726 5729 5731 5733 5735 5737 5738 5739
5631 5632 5631 5632 5632 5634 5635 5636 5637 5639 5640 5642 5643 5645 5649 5651 5653 5655 5657 5660 5663 5666 5669 5673 5676 5680 5683 5686 5690 5693 5697 5701 5704 5707 5710 5713 5716 5719 5721 5723 5726 5727 5729 5730
5630 5630 5629 5629 5630 5630 5632 5633 5634 5635 5635 5636 5639 5641 5644 5645 5647 5649 5651 5653 5656 5659 5662 5665 5669 5672 5675 5678 5682 5685 5688 5691 5695 5698 5701 5704 5706 5709 5712 5714 5716 5718 5719 5720
5627 5627 5627 5626 5626 5627 5629 5630 5630 5631 5632 5633 5634 5639 5639 5641 5641 5643 5645 5647 5649 5652 5655 5658 5661 5664 5667 5670 5673 5676 5679 5682 5686 5689 5692 5694 5697 5699 5702 5704 5706 5708 5709 5711
5625 5625 5624 5624 5624 5624 5625 5626 5626 5628 5628 5629 5630 5636 5634 5635 5636 5637 5639 5640 5643 5645 5648 5650 5653 5657 5660 5662 5665 5668 5671 5674 5677 5679 5682 5685 5687 5689 5692 5694 5696 5697 5699 5700
5622 5622 5621 5621 5622 5622 5621 5621 5622 5623 5624 5624 5626 5630 5628 5629 5630 5631 5633 5634 5636 5638 5640 5643 5645 5648 5651 5654 5657 5660 5662 5665 5667 5670 5672 5675 5677 5679 5682 5684 5685 5687 5689 5690
5619 5618 5619 5618 5617 5617 5617 5618 5617 5618 5619 5619 5621 5623 5624 5624 5625 5626 5627 5628 5629 5631 5633 5635 5637 5640 5643 5645 5648 5651 5653 5656 5658 5660 5663 5665 5667 5669 5672 5673 5675 5677 5678 5680
5616 5615 5614 5614 5613 5613 5613 5613 5613 5613 5614 5615 5617 5617 5618 5618 5619 5620 5621 5622 5623 5624 5626 5627 5629 5632 5634 5637 5639 5642 5644 5646 5649 5651 5653 5655 5657 5659 5661 5663 5665 5666 5668 5670
5612 5612 5610 5610 5609 5609 5609 5609 5608 5608 5609 5609 5610 5612 5612 5612 5613 5614 5615 5615 5616 5617 5618 5620 5621 5623 5626 5628 5630 5633 5635 5637 5639 5641 5643 5645 5647 5649 5651 5653 5655 5656 5658 5659
5608 5607 5606 5606 5605 5604 5604 5604 5604 5604 5604 5604 5604 5606 5606 5606 5607 5608 5608 5609 5609 5610 5611 5612 5614 5615 5617 5619 5622 5624 5626 5628 5630 5632 5634 5636 5637 5639 5641 5642 5644 5646 5647 5649
5604 5602 5600 5600 5600 5599 5602 5599 5598 5598 5598 5598 5599 5599 5600 5600 5601 5601 5602 5602 5602 5603 5604 5605 5606 5607 5609 5611 5613 5614 5617 5619 5620 5622 5624 5626 5627 5629 5631 5632 5634 5635 5637 5638
5599 5597 5595 5594 5593 5593 5595 5593 5592 5593 5593 5593 5593 5593 5593 5593 5594 5595 5595 5595 5595 5596 5596 5597 5598 5599 5600 5602 5604 5605 5607 5609 5611 5613 5614 5616 5617 5619 5620 5622 5623 5625 5626 5628
5594 5592 5591 5589 5587 5587 5589 5587 5586 5587 5587 5587 5587 5586 5586 5587 5587 5588 5587 5587 5588 5588 5588 5589 5590 5591 5592 5593 5595 5596 5598 5599 5601 5603 5604 5606 5607 5609 5610 5612 5613 5614 5616 5617
5588 5586 5585 5583 5581 5581 5582 5581 5580 5581 5582 5580 5579 5579 5580 5580 5580 5581 5580 5580 5580 5580 5580 5581 5581 5582 5583 5584 5586 5587 5589 5590 5591 5593 5595 5596 5597 5599 5600 5601 5603 5604 5605 5607
5581 5580 5578 5577 5575 5578 5575 5574 5574 5575 5574 5573 5572 5572 5572 5572 5572 5572 5572 5572 5572 5572 5572 5572 5573 5574 5575 5576 5577 5578 5580 5581 5582 5583 5585 5586 5587 5589 5590 5591 5592 5593 5595 5596
5575 5574 5572 5572 5572 5570 5568 5568 5567 5567 5566 5566 5565 5565 5565 5565 5565 5564 5564 5564 5564 5564 5564 5564 5565 5565 5566 5567 5568 5570 5571 5572 5573 5574 5575 5577 5578 5579 5580 5581 5582 5583 5584 5586
5568 5566 5565 5564 5564 5563 5561 5560 5560 5559 5559 5558 5558 5557 5557 5557 5557 5557 5556 5556 5556 5556 5556 5556 5557 5557 5558 5559 5560 5561 5562 5563 5564 5565 5566 5567 5568 5569 5570 5571 5572 5574 5574 5576
5561 5558 5557 5557 5557 5556 5555 5554 5553 5552 5551 5550 5550 5549 5549 5549 5549 5549 5548 5548 5548 5548 5548 5549 5549 5549 5550 5551 5552 5552 5553 5554 5555 5556 5556 5557 5558 5559 5560 5562 5563 5564 5565 5566
5553 5552 5551 5550 5550 5548 5548 5546 5545 5545 5544 5543 5542 5542 5541 5541 5541 5540 5540 5540 5540 5540 5540 5540 5541 5541 5542 5543 5543 5544 5545 5545 5546 5546 5547 5548 5549 5550 5551 5552 5553 5554 5555 5556